Regional Weather Roundup
Issued by NWS

Home | Current Version | Previous Version | Text Only | Print | Product List | Glossary Off
Versions: 1 2 3 4 5 6 7 8 9 10 11 12 13 14 15 16 17 18 19 20 21 22 23 24 25 26 27 28 29 30 31 32 33 34 35 36 37 38 39 40 41 42 43 44 45 46 47 48 49 50

000
ASUS43 KLOT 220810
RWRIL

ILLINOIS REGIONAL WEATHER ROUNDUP
NATIONAL WEATHER SERVICE CHICAGO/ROMEOVILLE IL
300 AM CDT FRI AUG 22 2014

NOTE: "FAIR" INDICATES FEW OR NO CLOUDS BELOW 12,000 FEET WITH NO
SIGNIFICANT WEATHER AND/OR OBSTRUCTIONS TO VISIBILITY.

* THESE STATIONS ARE NOT UNDER NWS QUALITY CONTROL. THEY ALSO MAY NOT
  REPORT WEATHER SUCH AS PRECIPITATION OR FOG.

ILZ001-002-007-009-015-016-024-220900-
NORTHWEST ILLINOIS

CITY           SKY/WX    TMP DP  RH WIND       PRES   REMARKS
MOLINE         MOCLDY    78  74  87 CALM      29.87R THUNDER HX  81
STERLING*      CLEAR     72  70  94 SE6       29.88S
SAVANNA*       CLEAR     73  70  92 NE3       29.86F FOG
$$

ILZ003-004-008-010-011-017-018-220900-
NORTH CENTRAL ILLINOIS

CITY           SKY/WX    TMP DP  RH WIND       PRES   REMARKS
ROCKFORD       PTCLDY    73  71  93 CALM      29.89F FOG
FREEPORT*      FOG       73  72  96 CALM      29.90F VSB 1/4
ROCHELLE*      PTCLDY    71  69  94 CALM      29.89F
DE KALB*       CLOUDY    71  71  99 E5        29.90F FOG
PERU*          CLOUDY    74  73  96 S6        29.89F
$$

ILZ005-006-012>014-019>023-220900-
NORTHEAST ILLINOIS

CITY           SKY/WX    TMP DP  RH WIND       PRES   REMARKS
CHICAGO-OHARE  TSTM      74  70  87 W3G18     29.91R FOG
CHICAGO-MIDWAY TSTM      75  74  96 CALM      29.93R FOG
AURORA         CLOUDY    74  71  91 SE5       29.91R FOG
LANSING*       TSTM      73  70  93 NE7       29.93R
JOLIET*        CLOUDY    72  70  92 NE5       29.93R
WAUKEGAN       FOG       70  69  97 E3        29.89F VSB 1/4
DUPAGE AIRPORT LGT RAIN  74  72  93 E8        29.91S
KANKAKEE*      TSTM      73  72  96 W8G20     29.92R
WHEELING       CLOUDY    75  73  93 SW6       29.93R
MORRIS*        CLOUDY    73  73 100 SW7       29.90R
ROMEOVILLE*    CLOUDY    74  73  99 NE3       29.93R FOG
NORTHERLY ISL    N/A     73  70  90 S12         N/A
$$

LMZ740>746-220900-
SOUTHERN LAKE MICHIGAN

STATION/POSITION SKY/WX   TEMP    WIND        PRES    VSBY  WAVE
                          AIR SEA DIR/SP/G                  HT/PER
                          (F)     (DEG/KT/KT) (MB)    (MI)  (FT/S)
SOUTHERN BUOY              69 69  100/  6/  6 1012.3F         0
WAUKEGAN HARBOR            71        CALM       N/A
HARRISON CRIB              73     200/ 12/ 13   N/A
BURNHAM HARBOR             73     200/  4/ 15   N/A
CALUMET HARBOR             71     150/ 11/ 12 1012.2F
MICHIGAN CITY              72     150/  8/ 12   N/A
MICHIGAN CITY 6N           72 71  230/ 10/ 16   N/A           1
ST. JOSEPH                 71 71  160/  6/  8   N/A           0
$$

ILZ025>027-034>036-040-047-049-050-058-095>099-220900-
WEST-CENTRAL ILLINOIS

CITY           SKY/WX    TMP DP  RH WIND       PRES   REMARKS
QUINCY         CLEAR     80  72  76 SW10      29.90S HX  84
GALESBURG*     MOCLDY    76  75  94 CALM      29.87F
MACOMB*        MOCLDY    77  74  90 SW5       29.89F
JACKSONVILLE*  CLEAR     81  74  81 SW10      29.90F HX  86
PITTSFIELD*    CLEAR     79  71  76 SW8       29.92S HX  82
$$

ILZ028>032-037-038-041>044-048-051>054-059>061-220900-
CENTRAL ILLINOIS

CITY           SKY/WX    TMP DP  RH WIND       PRES   REMARKS
PONTIAC        TSTM      75  75 100 N14G23    29.93R
DECATUR        CLEAR     78  74  87 SW13      29.91F HX  81
PEORIA         PTCLDY    80  75  84 SW8       29.87F HX  85
LACON*         CLOUDY    78  75  91 CALM      29.88R HX  81
LINCOLN*       CLEAR     79  75  88 S5        29.86F HX  82
SPRINGFIELD    CLEAR     80  75  84 SW10G17   29.89F HX  85
TAYLORVILLE    CLEAR     75  73  94 S9        29.92S
$$

ILZ033-039-045-046-055>057-062-063-220900-
EAST-CENTRAL ILLINOIS

CITY           SKY/WX    TMP DP  RH WIND       PRES   REMARKS
CHAMPAIGN      PTCLDY    76  74  93 SW9       29.91F
DANVILLE*      HVY RAIN  76  74  95 SW7       29.88F
RANTOUL*       MOCLDY    78  73  85 SW7       29.92F HX  81
MATTOON        CLEAR     77  73  87 SW9       29.93S
PARIS*         CLEAR     76  74  95 SW5       29.93F
$$

ILZ079-100>102-220900-
SOUTHWEST ILLINOIS

CITY           SKY/WX    TMP DP  RH WIND       PRES   REMARKS
ALTON          CLEAR     79  76  92 SW8       29.94F HX  83
BELLEVILLE     CLEAR     77  75  93 CALM      29.94F
CAHOKIA*       CLEAR     81  71  71 SW6       29.94F HX  85
SPARTA*        CLEAR     77  73  86 SW6       29.98S
$$

ILZ064>066-069>071-074>076-080>082-084>086-088>090-092>094-220900-
SOUTH-CENTRAL ILLINOIS

CITY           SKY/WX    TMP DP  RH WIND       PRES   REMARKS
CARBONDALE     CLEAR     79  71  76 SW9       29.97F HX  82
CAIRO*         CLEAR     79  73  84 S5        30.00F HX  82
MARION         CLEAR     81  73  78 SW8       29.99S HX  85
MT. VERNON     CLEAR     75  70  83 SW6       29.97S
CENTRALIA*     CLEAR     77  71  80 SW9       29.96S
SALEM*         CLEAR     79  75  87 SW8       29.96S HX  82
METROPOLIS*    CLEAR     77  71  81 SW6       29.99F
$$

ILZ067-068-072-073-078-083-087-091-220900-
SOUTHEAST ILLINOIS

CITY           SKY/WX    TMP DP  RH WIND       PRES   REMARKS
LAWRENCEVILLE  CLEAR     76  73  91 SW6       29.96S
FLORA*         CLEAR     76  73  90 SW7       29.96S
FAIRFIELD*     CLEAR     79  75  89 SW3       29.96S HX  82
HARRISBURG*    CLEAR     78  74  88 SW7       29.99S HX  81
ROBINSON*      CLEAR     78  75  90 SW7       29.95S HX  80
CARMI*         CLEAR     79  75  89 SW9       29.96F HX  82
$$

ABBREVIATIONS USED IN REMARKS
   TC - TEMPERATURE IN CELSIUS
  WCI - WIND CHILL INDEX
   HX - HEAT INDEX
  VSB - VISIBILITY
$$




USA.gov is the U.S. government's official web portal to all federal, state and local government web resources and services.